When you browse on this site, cookies collect data to enhance your experience and personalize the content and advertising you see.
Visit our Privacy Policy to learn more. By continuing to use the site, you agree to this use of cookies and data.
  • En España
  • Lista de países
  • Para 7 días
  • Temperatura del agua
  • El tiempo en el mapa
  • Informadores
  • user-avatar
    Iniciar sesión

    Tiempo cada hora Hurghada

    Hoy, 18 Febrero, Martes

    Tiempo Temperatura Precipitaciones Viento Presión Humedad
    00:00 +8°C° 0 mm 1 mps 681 mmHg 72%
    01:00 +7°C° 0 mm 1 mps 680 mmHg 73%
    02:00 +7°C° 0 mm 1 mps 680 mmHg 73%
    03:00 +6°C° 0 mm 0 mps 680 mmHg 74%
    04:00 +5°C° 0 mm 0 mps 680 mmHg 76%
    05:00 +5°C° 0 mm 0 mps 680 mmHg 77%
    06:00 +8°C° 0 mm 1 mps 681 mmHg 68%
    07:00 +10°C° 0 mm 1 mps 682 mmHg 59%
    08:00 +12°C° 0 mm 1 mps 683 mmHg 51%
    09:00 +13°C° 0 mm 1 mps 683 mmHg 45%
    10:00 +15°C° 0 mm 1 mps 683 mmHg 40%
    11:00 +16°C° 0 mm 2 mps 684 mmHg 35%
    12:00 +17°C° 0 mm 3 mps 683 mmHg 33%
    13:00 +18°C° 0 mm 4 mps 683 mmHg 30%
    14:00 +18°C° 0 mm 4 mps 683 mmHg 30%
    15:00 +17°C° 0 mm 4 mps 682 mmHg 32%
    16:00 +17°C° 0 mm 4 mps 682 mmHg 34%
    17:00 +15°C° 0 mm 5 mps 682 mmHg 36%
    18:00 +13°C° 0 mm 4 mps 682 mmHg 43%
    19:00 +11°C° 0 mm 4 mps 682 mmHg 51%
    20:00 +9°C° 0 mm 3 mps 682 mmHg 58%
    21:00 +9°C° 0 mm 3 mps 682 mmHg 60%
    22:00 +9°C° 0 mm 3 mps 682 mmHg 61%
    23:00 +8°C° 0 mm 3 mps 682 mmHg 63%

    Mañana, 19 Febrero, Miércoles

    Tiempo Temperatura Precipitaciones Viento Presión Humedad
    00:00 +8°C° 0 mm 3 mps 682 mmHg 65%
    01:00 +7°C° 0 mm 3 mps 682 mmHg 66%
    02:00 +7°C° 0 mm 3 mps 681 mmHg 68%
    03:00 +7°C° 0 mm 3 mps 681 mmHg 70%
    04:00 +5°C° 0 mm 3 mps 681 mmHg 72%
    05:00 +5°C° 0 mm 3 mps 681 mmHg 73%
    06:00 +7°C° 0 mm 3 mps 682 mmHg 68%
    07:00 +7°C° 0 mm 4 mps 682 mmHg 62%
    08:00 +8°C° 0 mm 4 mps 683 mmHg 56%
    09:00 +10°C° 0 mm 5 mps 683 mmHg 49%
    10:00 +11°C° 0 mm 7 mps 684 mmHg 42%
    11:00 +13°C° 0 mm 8 mps 684 mmHg 35%
    12:00 +13°C° 0 mm 8 mps 684 mmHg 35%
    13:00 +13°C° 0 mm 9 mps 683 mmHg 35%
    14:00 +13°C° 0 mm 9 mps 683 mmHg 35%
    15:00 +13°C° 0 mm 9 mps 683 mmHg 35%
    16:00 +13°C° 0 mm 8 mps 683 mmHg 36%
    17:00 +12°C° 0 mm 8 mps 683 mmHg 37%
    18:00 +11°C° 0 mm 7 mps 683 mmHg 42%
    19:00 +9°C° 0 mm 5 mps 683 mmHg 47%
    20:00 +8°C° 0 mm 4 mps 683 mmHg 52%
    21:00 +7°C° 0 mm 4 mps 683 mmHg 55%
    22:00 +8°C° 0 mm 3 mps 684 mmHg 58%
    23:00 +8°C° 0 mm 3 mps 684 mmHg 61%

    Pasado mañana, 20 Febrero, Jueves

    Tiempo Temperatura Precipitaciones Viento Presión Humedad
    00:00 +7°C° 0 mm 3 mps 684 mmHg 65%
    01:00 +6°C° 0 mm 2 mps 683 mmHg 68%
    02:00 +6°C° 0 mm 2 mps 683 mmHg 72%
    03:00 +5°C° 0 mm 2 mps 683 mmHg 74%
    04:00 +5°C° 0 mm 2 mps 683 mmHg 76%
    05:00 +5°C° 0 mm 2 mps 683 mmHg 78%
    06:00 +6°C° 0 mm 2 mps 684 mmHg 72%
    07:00 +8°C° 0 mm 2 mps 685 mmHg 66%
    08:00 +10°C° 0 mm 1 mps 685 mmHg 59%
    09:00 +12°C° 0 mm 2 mps 686 mmHg 51%
    10:00 +14°C° 0 mm 2 mps 686 mmHg 42%
    11:00 +14°C° 0 mm 3 mps 686 mmHg 33%
    12:00 +16°C° 0 mm 3 mps 686 mmHg 32%
    13:00 +17°C° 0 mm 3 mps 686 mmHg 31%
    14:00 +18°C° 0 mm 4 mps 685 mmHg 29%
    15:00 +17°C° 0 mm 3 mps 685 mmHg 35%
    16:00 +16°C° 0 mm 3 mps 684 mmHg 41%
    17:00 +14°C° 0 mm 3 mps 684 mmHg 46%
    18:00 +13°C° 0 mm 2 mps 684 mmHg 56%
    19:00 +10°C° 0 mm 2 mps 683 mmHg 67%
    20:00 +9°C° 0 mm 1 mps 683 mmHg 77%
    21:00 +8°C° 0 mm 1 mps 683 mmHg 77%
    22:00 +8°C° 0 mm 1 mps 683 mmHg 76%
    23:00 +7°C° 0 mm 1 mps 683 mmHg 75%

    21 Febrero, Viernes

    Tiempo Temperatura Precipitaciones Viento Presión Humedad
    00:00 +7°C° 0 mm 1 mps 683 mmHg 75%
    01:00 +7°C° 0 mm 1 mps 682 mmHg 74%
    02:00 +6°C° 0 mm 1 mps 682 mmHg 73%
    03:00 +6°C° 0 mm 1 mps 682 mmHg 73%
    04:00 +5°C° 0 mm 0 mps 682 mmHg 74%
    05:00 +4°C° 0 mm 0 mps 682 mmHg 74%
    06:00 +8°C° 0 mm 1 mps 683 mmHg 63%
    07:00 +10°C° 0 mm 1 mps 683 mmHg 52%
    08:00 +13°C° 0 mm 1 mps 684 mmHg 41%
    15:00 +19°C° 0 mm 4 mps 684 mmHg 21%
    16:00 +18°C° 0 mm 4 mps 683 mmHg 23%
    17:00 +17°C° 0 mm 4 mps 683 mmHg 25%
    18:00 +14°C° 0 mm 4 mps 683 mmHg 31%
    19:00 +12°C° 0 mm 3 mps 683 mmHg 36%
    20:00 +9°C° 0 mm 2 mps 682 mmHg 42%
    21:00 +9°C° 0 mm 2 mps 682 mmHg 43%
    22:00 +9°C° 0 mm 2 mps 682 mmHg 44%
    23:00 +8°C° 0 mm 2 mps 683 mmHg 44%

    22 Febrero, Sábado

    Tiempo Temperatura Precipitaciones Viento Presión Humedad
    00:00 +8°C° 0 mm 2 mps 682 mmHg 49%
    01:00 +7°C° 0 mm 2 mps 682 mmHg 54%
    02:00 +7°C° 0 mm 2 mps 682 mmHg 59%
    03:00 +6°C° 0 mm 2 mps 682 mmHg 63%
    04:00 +6°C° 0 mm 2 mps 682 mmHg 67%
    05:00 +6°C° 0 mm 2 mps 682 mmHg 71%
    06:00 +7°C° 0 mm 3 mps 683 mmHg 64%
    07:00 +8°C° 0 mm 3 mps 683 mmHg 57%
    08:00 +10°C° 0 mm 4 mps 684 mmHg 50%
    09:00 +11°C° 0 mm 4 mps 685 mmHg 44%
    10:00 +13°C° 0 mm 4 mps 685 mmHg 37%
    11:00 +14°C° 0 mm 4 mps 685 mmHg 31%
    12:00 +15°C° 0 mm 4 mps 685 mmHg 29%
    13:00 +16°C° 0 mm 5 mps 685 mmHg 26%
    14:00 +17°C° 0 mm 5 mps 684 mmHg 23%
    15:00 +16°C° 0 mm 5 mps 684 mmHg 26%
    16:00 +15°C° 0 mm 5 mps 684 mmHg 29%
    17:00 +14°C° 0 mm 6 mps 684 mmHg 32%
    18:00 +12°C° 0 mm 5 mps 684 mmHg 42%
    19:00 +10°C° 0 mm 4 mps 684 mmHg 51%
    20:00 +7°C° 0 mm 3 mps 683 mmHg 61%
    21:00 +7°C° 0 mm 2 mps 683 mmHg 60%
    22:00 +7°C° 0 mm 2 mps 683 mmHg 60%
    23:00 +6°C° 0 mm 2 mps 683 mmHg 59%

    23 Febrero, Domingo

    Tiempo Temperatura Precipitaciones Viento Presión Humedad
    00:00 +6°C° 0 mm 2 mps 683 mmHg 60%
    01:00 +6°C° 0 mm 2 mps 683 mmHg 61%
    02:00 +5°C° 0 mm 2 mps 683 mmHg 62%
    03:00 +5°C° 0 mm 2 mps 682 mmHg 65%
    04:00 +5°C° 0 mm 2 mps 682 mmHg 68%
    05:00 +4°C° 0 mm 2 mps 682 mmHg 71%
    06:00 +6°C° 0 mm 2 mps 683 mmHg 68%
    07:00 +7°C° 0 mm 2 mps 683 mmHg 66%
    08:00 +8°C° 0 mm 2 mps 684 mmHg 64%
    09:00 +10°C° 0 mm 2 mps 684 mmHg 53%
    10:00 +11°C° 0 mm 3 mps 684 mmHg 42%
    11:00 +13°C° 0 mm 3 mps 684 mmHg 32%
    12:00 +14°C° 0 mm 4 mps 684 mmHg 29%
    13:00 +15°C° 0 mm 4 mps 684 mmHg 26%
    14:00 +16°C° 0 mm 5 mps 683 mmHg 23%
    15:00 +15°C° 0 mm 5 mps 683 mmHg 27%
    16:00 +14°C° 0 mm 6 mps 683 mmHg 31%
    17:00 +13°C° 0 mm 6 mps 682 mmHg 35%
    18:00 +10°C° 0 mm 5 mps 682 mmHg 41%
    19:00 +8°C° 0 mm 4 mps 682 mmHg 46%
    20:00 +7°C° 0 mm 4 mps 682 mmHg 52%
    21:00 +7°C° 0 mm 3 mps 682 mmHg 55%
    22:00 +5°C° 0 mm 3 mps 682 mmHg 59%
    23:00 +6°C° 0 mm 2 mps 682 mmHg 62%
    Mostrar más